Home > Weather > Fredericton > Past weeks

Flag for Canada Weather for the Past 2 Weeks in Fredericton, New Brunswick, Canada

Now
46 °F

Mostly cloudy.


Feels Like: 42 °F
Forecast: N/A
Wind: 8 mph from Northeast

Location: Fredericton

Current Time: May 3, 2016 at 8:15:02 PM

Latest Report: May 3, 2016 at 7:00 PM


Visibility: 9 mi

Pressure: 29.87 "Hg

Humidity: 76%

Dew Point: 39 °F

Location of FrederictonLocation

Historic Weather in Fredericton — Graph

°F

Fredericton Temperature Yesterday

Maximum temperature yesterday: 55 °F (at 2:00 PM)
Minimum temperature yesterday: 43 °F (at 11:00 PM)
Average temperature yesterday: 49 °F

High & Low Weather Summary for the Past Weeks

 TemperatureHumidityPressure
High75 °F (Apr 22, 4:00 PM)93% (Apr 22, 7:00 AM)30.27 "Hg (Apr 22, 7:00 AM)
Low19 °F (Apr 27, 6:00 AM)13% (Apr 30, 6:00 PM)29.71 "Hg (Apr 26, 7:00 PM)
Average44 °F49%29.97 "Hg
* Reported Apr 18 7:00 PM — May 3 7:00 PM, Fredericton, Weather by CustomWeather, © 2016

Note: Actual official high and low records may vary slightly from our data, if they occured in-between our weather recording intervals... More about our weather records

Advertising

Fredericton Weather History for the Previous 24 Hours

Scroll right to see more
 ConditionsComfort  
Time TempWeatherWind HumidityBarometerVisibility
7:00 PM
Tue, May 3
46 °FMostly cloudy.8 mph76%29.87 "Hg9 mi
6:00 PM46 °FMostly cloudy.9 mph76%29.87 "Hg9 mi
5:00 PM46 °FMostly cloudy.9 mph76%29.87 "Hg9 mi
4:00 PM46 °FOvercast.8 mph76%29.87 "Hg9 mi
3:00 PM46 °FOvercast.14 mph76%29.87 "Hg9 mi
2:04 PM45 °FLight rain. Overcast.10 mph87%29.87 "Hg8 mi
1:00 PM45 °FOvercast.9 mph87%29.87 "Hg9 mi
12:53 PM45 °FOvercast.7 mph87%29.88 "Hg9 mi
12:00 PM45 °FFog.9 mph87%29.88 "Hg5 mi
11:53 AM43 °FFog.9 mph93%29.88 "Hg4 mi
11:00 AM45 °FOvercast.9 mph87%29.88 "Hg9 mi
10:00 AM43 °FOvercast.8 mph93%29.86 "Hg9 mi
9:50 AM43 °FOvercast.12 mph93%29.86 "Hg9 mi
9:00 AM43 °FLow clouds.12 mph87%29.85 "Hg7 mi
8:00 AM41 °FMostly cloudy.12 mph93%29.85 "Hg9 mi
7:00 AM41 °FFog.12 mph93%29.83 "Hg3 mi
6:00 AM41 °FLight rain. Fog.8 mph93%29.84 "Hg2 mi
5:58 AM41 °FLight rain. Fog.9 mph93%29.84 "Hg2 mi
5:00 AM41 °FLight rain. Fog.8 mph93%29.85 "Hg2 mi
4:00 AM41 °FLight rain. Fog.9 mph93%29.85 "Hg3 mi
3:00 AM43 °FLight rain. Fog.8 mph87%29.87 "Hg3 mi
2:00 AM43 °FOvercast.8 mph87%29.88 "Hg9 mi
1:49 AM43 °FOvercast.8 mph87%29.88 "Hg9 mi
1:00 AM43 °FLight rain. Overcast.12 mph87%29.91 "Hg9 mi
12:00 AM43 °FLight rain. Overcast.6 mph87%29.94 "Hg9 mi
11:00 PM
Mon, May 2
43 °FLight rain. Mostly cloudy.7 mph93%29.98 "Hg7 mi
10:00 PM45 °FLight rain. Overcast.6 mph81%30.02 "Hg8 mi
9:00 PM46 °FLight rain. Overcast.10 mph71%30.01 "Hg9 mi
8:00 PM50 °FLight rain. Mostly cloudy.9 mph54%30.01 "Hg9 mi
Weather by CustomWeather, © 2016

See weather overviewHow to use our weather pages